[[{"header":{"parameterUnit":"m.s-1","parameterCategory":1,"la1":30.2991,"la2":30.254,"lo1":-89.0895,"lo2":-89.0444,"dy":0.0017,"dx":0.0017,"nx":28,"ny":28,"refTime":"2024-12-06T09:00:00:Z","depth":0,"parameterNumber":2,"parameterNumberName":"U-component_of_WINDS"},"data":[0,0,0,0,0,0,0,0,0,0,0,0,0,0,0,0,0,0,0,0,0,0,0,0,0,0,0,0,0,0,0,0,0,0,0,0,0,0,0,0,0,0,0,0,0,0,0,0,0,0,0,0,0,0,0,0,0,0,-3.22,-3.22,0,-3.2171,-3.2171,-3.217,-3.2018,-3.2014,-3.2011,-3.2007,-3.1981,-3.1984,-3.1986,0,0,0,0,0,0,0,0,0,0,0,0,0,-3.2125,-3.2128,-3.22,-3.22,-3.2199,-3.2171,-3.2171,-3.217,-3.2019,-3.2014,-3.201,-3.2006,-3.198,-3.1983,-3.1987,0,0,0,0,0,0,0,0,0,0,0,0,0,-3.2134,-3.2128,-3.22,-3.212,-3.2112,-3.2171,-3.2171,-3.217,-3.202,-3.2014,-3.2009,-3.2003,-3.1979,-3.1983,-3.1987,-3.2122,0,0,-3.1999,-3.2001,0,0,0,0,0,0,0,0,-3.2133,-3.2137,-3.2132,-3.2126,-3.2117,-3.2092,-3.2135,-3.2154,-3.2021,-3.2055,-3.2007,-3.2001,-3.2023,-3.2023,-3.203,-3.212,-3.2119,-3.2,-3.2002,-3.2004,-3.2005,0,0,0,0,0,0,0,-3.2133,-3.2137,-3.2188,-3.2132,-3.2123,-3.2086,-3.2081,-3.2138,-3.207,-3.2052,-3.204,-3.2039,-3.2018,-3.2026,-3.2028,-3.2119,-3.2,-3.2003,-3.2006,-3.2007,-3.2318,-3.2323,0,0,0,0,0,0,-3.2143,-3.2137,-3.2189,-3.2188,-3.2112,-3.2092,-3.2086,-3.2106,-3.2069,-3.2058,-3.2044,-3.2032,-3.2022,-3.2023,-3.2026,-3.2181,-3.2004,-3.2008,-3.201,-3.2312,-3.2319,-3.2326,0,0,0,0,0,0,-3.2142,-3.2149,-3.2191,-3.2159,-3.2162,-3.2099,-3.2122,-3.2108,-3.2116,-3.2063,-3.205,-3.2065,-3.2018,-3.2021,-3.2099,-3.2178,-3.201,-3.2013,-3.2305,-3.2314,-3.2322,-3.2492,0,0,0,0,0,0,-3.2141,-3.215,-3.22,-3.2162,-3.2164,-3.2263,-3.2127,-3.2112,-3.2123,-3.2108,-3.2079,-3.2069,-3.2014,-3.2093,-3.2103,-3.218,-3.2016,-3.2298,-3.2309,-3.232,-3.2479,-3.2505,-3.2528,0,0,0,0,0,-3.2139,-3.225,-3.2203,-3.221,-3.2225,-3.2268,-3.2269,-3.2202,-3.2131,-3.218,-3.2146,-3.207,-3.2168,-3.2103,-3.2112,-3.2192,-3.2293,-3.2306,-3.2319,-3.2468,-3.25,-3.2527,0,0,0,0,0,0,-3.23,-3.2243,-3.2191,-3.2293,-3.2286,-3.2242,-3.2303,-3.2239,-3.2253,-3.2238,-3.2155,-3.215,-3.224,-3.2224,-3.2152,-3.232,-3.2217,-3.2233,-3.2328,-3.2358,-3.2382,-3.2384,-3.202,0,0,0,0,0,-3.2347,-3.2386,-3.2334,-3.2429,-3.2428,-3.2367,-3.2383,-3.2332,-3.2322,-3.2319,-3.229,-3.2285,-3.2313,-3.2335,-3.2359,-3.2476,-3.2467,-3.2535,-3.256,-3.258,-3.2595,-3.2655,-3.2685,-3.2369,-3.2368,-3.2368,0,0,-3.2446,-3.2419,-3.2449,-3.2461,-3.245,-3.2492,-3.2366,-3.2416,-3.2447,-3.2327,-3.2398,-3.2377,-3.2365,-3.2464,-3.2505,-3.2453,-3.268,-3.2597,-3.2614,-3.2617,-3.2672,-3.2702,-3.2729,-3.2377,-3.2376,-3.2374,0,0,-3.2647,-3.2631,-3.2707,-3.2699,-3.2683,-3.2641,-3.266,-3.2625,-3.2606,-3.2676,-3.2587,-3.2623,-3.2675,-3.267,-3.2675,-3.2873,-3.2804,-3.2884,-3.3012,-3.3072,-3.3097,-3.3118,-3.3189,-3.3216,-3.2898,-3.2899,-3.2899,0,-3.2771,-3.2831,-3.2756,-3.2812,-3.282,-3.2711,-3.2789,-3.2784,-3.2778,-3.2786,-3.2727,-3.279,-3.2774,-3.287,-3.2918,-3.2925,-3.2944,-3.2887,-3.3099,-3.312,-3.3139,-3.3206,-3.3233,-3.2908,-3.2907,-3.2906,-3.2905,0,-3.2985,-3.3028,-3.3092,-3.3087,-3.3102,-3.3169,-3.3104,-3.3129,-3.3076,-3.3041,-3.3114,-3.3092,-3.3109,-3.3128,-3.3078,-3.3216,-3.3184,-3.3114,-3.3008,-3.318,-3.3242,-3.3267,-3.2922,-3.2919,-3.2916,-3.2914,0,0,-3.3287,-3.3239,-3.3264,-3.326,-3.3234,-3.3266,-3.3329,-3.3344,-3.3367,-3.3366,-3.3416,-3.3463,-3.3397,-3.3402,-3.335,-3.3403,-3.3562,-3.3326,-3.3324,-3.337,-3.3714,-3.3767,-3.3798,-3.3516,-3.352,-3.3524,-3.3715,0,-3.3479,-3.3581,-3.3515,-3.3628,-3.3666,-3.3564,-3.3618,-3.3609,-3.3577,-3.3606,-3.3572,-3.3606,-3.3517,-3.3519,-3.3567,-3.3533,-3.363,-3.3518,-3.3563,-3.3565,-3.3569,-3.383,-3.3886,-3.4067,-3.3738,-3.3742,-3.3745,0,-3.3717,-3.3725,-3.3842,-3.3807,-3.3821,-3.3871,-3.388,-3.3908,-3.3896,-3.387,-3.3876,-3.381,-3.3869,-3.3766,-3.3847,-3.3772,-3.3787,-3.3773,-3.3778,-3.378,-3.3666,-3.3839,-3.4123,-3.4151,-3.3782,-3.3779,-3.3776,0,-3.3925,-3.3966,-3.404,-3.404,-3.4003,-3.404,-3.4026,-3.4008,-3.4022,-3.403,-3.4038,-3.4054,-3.4063,-3.4077,-3.4018,-3.3948,-3.4107,-3.3998,-3.4087,-3.4089,-3.4125,-3.4123,-3.4416,-3.4135,-3.4135,-3.4134,-3.4134,0,-3.4146,-3.4222,-3.4133,-3.4179,-3.4261,-3.4184,-3.4267,-3.4243,-3.4228,-3.4268,-3.4181,-3.4221,-3.414,-3.4172,-3.4127,-3.42,-3.4205,-3.4186,-3.4173,-3.4194,-3.4196,-3.4202,-3.4188,-3.4141,-3.414,-3.4138,-3.4137,0,-3.4393,-3.4337,-3.4411,-3.4369,-3.436,-3.4422,-3.4387,-3.4428,-3.439,-3.4442,-3.445,-3.4392,-3.4425,-3.4368,-3.4394,-3.4363,-3.4466,-3.4434,-3.447,-3.4461,-3.4552,-3.4545,-3.4859,-3.4896,-3.4592,-3.4595,-3.4597,0,-3.4538,-3.4593,-3.4557,-3.4577,-3.4567,-3.4601,-3.4614,-3.4541,-3.4558,-3.4548,-3.4591,-3.4616,-3.4632,-3.469,-3.4651,-3.4671,-3.4638,-3.4747,-3.4641,-3.466,-3.464,-3.4637,-3.4642,-3.4769,-3.4773,-3.4776,-3.4778,0,-3.4801,-3.477,-3.4791,-3.4803,-3.4821,-3.4827,-3.4827,-3.4849,-3.4772,-3.4796,-3.4827,-3.484,-3.4866,-3.4893,-3.4903,-3.4889,-3.4822,-3.4812,-3.4833,-3.4855,-3.4874,-3.4864,-3.453,-3.4805,-3.4802,-3.48,-3.4799,-3.4798,-3.5001,-3.5045,-3.5026,-3.5052,-3.5044,-3.5046,-3.5083,-3.5049,-3.5074,-3.5089,-3.5045,-3.5087,-3.5073,-3.5079,-3.5074,-3.5106,-3.5058,-3.5089,-3.5097,-3.5106,-3.512,-3.4869,-3.5108,-3.5107,-3.5106,-3.5106,-3.5105,0,-3.5259,-3.5241,-3.5266,-3.5268,-3.529,-3.5222,-3.5219,-3.5241,-3.5279,-3.5271,-3.5289,-3.5326,-3.5351,-3.5314,-3.5333,-3.5366,-3.5336,-3.5374,-3.537,-3.5369,-3.5162,-3.5142,-3.5398,-3.5398,-3.5398,-3.5398,-3.5398,-3.5398,-3.5395,-3.5466,-3.5433,-3.5499,-3.5481,-3.5521,-3.5525,-3.5526,-3.5519,-3.5564,-3.5584,-3.5559,-3.554,-3.5556,-3.5577,-3.5565,-3.5577,-3.5626,-3.5604,-3.5412,-3.5383,-3.5356,-3.5336,-3.5629,-3.5629,-3.5807,-3.5808,-3.581]},{"header":{"parameterUnit":"m.s-1","parameterCategory":1,"la1":30.2991,"la2":30.254,"lo1":-89.0895,"lo2":-89.0444,"dy":0.0017,"dx":0.0017,"nx":28,"ny":28,"refTime":"2024-12-06T09:00:00:Z","depth":0,"parameterNumber":3,"parameterNumberName":"V-component_of_WINDS"},"data":[0,0,0,0,0,0,0,0,0,0,0,0,0,0,0,0,0,0,0,0,0,0,0,0,0,0,0,0,0,0,0,0,0,0,0,0,0,0,0,0,0,0,0,0,0,0,0,0,0,0,0,0,0,0,0,0,0,0,-1.2138,-1.2139,0,-1.2173,-1.2174,-1.2174,-1.221,-1.2211,-1.2211,-1.2212,-1.2246,-1.2246,-1.2247,0,0,0,0,0,0,0,0,0,0,0,0,0,-1.2101,-1.2101,-1.2138,-1.2139,-1.2139,-1.2173,-1.2174,-1.2174,-1.221,-1.2211,-1.2212,-1.2212,-1.2246,-1.2246,-1.2247,0,0,0,0,0,0,0,0,0,0,0,0,0,-1.2124,-1.2101,-1.2138,-1.2161,-1.2164,-1.2173,-1.2174,-1.2174,-1.221,-1.2211,-1.2212,-1.2212,-1.2246,-1.2246,-1.2247,-1.2236,0,0,-1.2249,-1.2249,0,0,0,0,0,0,0,0,-1.2123,-1.2126,-1.2158,-1.216,-1.2163,-1.2188,-1.2173,-1.2195,-1.221,-1.2193,-1.2212,-1.2213,-1.2226,-1.2228,-1.2233,-1.2238,-1.2239,-1.2249,-1.2249,-1.225,-1.225,0,0,0,0,0,0,0,-1.2121,-1.2124,-1.2152,-1.2158,-1.2161,-1.2169,-1.2173,-1.2177,-1.2205,-1.2194,-1.2197,-1.2201,-1.2228,-1.2233,-1.2234,-1.224,-1.2249,-1.225,-1.225,-1.225,-1.2235,-1.2234,0,0,0,0,0,0,-1.2116,-1.2123,-1.2151,-1.2153,-1.2144,-1.2169,-1.2174,-1.2179,-1.2205,-1.2209,-1.22,-1.2202,-1.2231,-1.2234,-1.2236,-1.2223,-1.225,-1.225,-1.2251,-1.2235,-1.2234,-1.2233,0,0,0,0,0,0,-1.2115,-1.2119,-1.215,-1.2139,-1.2143,-1.2169,-1.2175,-1.218,-1.2185,-1.2209,-1.2214,-1.22,-1.2232,-1.2235,-1.2235,-1.2225,-1.2251,-1.2251,-1.2236,-1.2235,-1.2234,-1.2198,0,0,0,0,0,0,-1.2114,-1.2118,-1.2115,-1.2138,-1.2144,-1.2149,-1.2174,-1.218,-1.2186,-1.2189,-1.2211,-1.2215,-1.2233,-1.2234,-1.2236,-1.2226,-1.2252,-1.2237,-1.2236,-1.2234,-1.22,-1.2196,-1.2192,0,0,0,0,0,-1.2113,-1.2103,-1.2114,-1.2118,-1.214,-1.2149,-1.2152,-1.2173,-1.2185,-1.2181,-1.2197,-1.2214,-1.2226,-1.2234,-1.2236,-1.2226,-1.2238,-1.2236,-1.2234,-1.2202,-1.2196,-1.2192,0,0,0,0,0,0,-1.2077,-1.2107,-1.2119,-1.2118,-1.213,-1.2155,-1.2151,-1.2167,-1.2176,-1.2178,-1.2204,-1.2208,-1.2205,-1.2216,-1.2225,-1.2216,-1.2234,-1.2233,-1.2209,-1.2204,-1.22,-1.2196,-1.2252,0,0,0,0,0,-1.2069,-1.2074,-1.21,-1.2095,-1.2101,-1.2125,-1.2129,-1.2144,-1.2159,-1.2164,-1.218,-1.2192,-1.2198,-1.2202,-1.2209,-1.2202,-1.2206,-1.2197,-1.2192,-1.2189,-1.2187,-1.2182,-1.2177,-1.2227,-1.2227,-1.2228,0,0,-1.2052,-1.2069,-1.2071,-1.2089,-1.21,-1.2104,-1.2129,-1.2132,-1.2135,-1.2164,-1.2165,-1.2177,-1.2193,-1.2189,-1.2188,-1.2198,-1.2174,-1.2186,-1.2183,-1.2183,-1.2179,-1.2174,-1.217,-1.2226,-1.2226,-1.2227,0,0,-1.2023,-1.2037,-1.2034,-1.2046,-1.2063,-1.2079,-1.2078,-1.21,-1.2109,-1.2111,-1.2133,-1.2136,-1.2147,-1.2156,-1.2163,-1.2136,-1.2152,-1.2138,-1.2115,-1.211,-1.2106,-1.2103,-1.2091,-1.2087,-1.2136,-1.2136,-1.2136,0,-1.2,-1.2007,-1.2031,-1.2032,-1.2038,-1.2066,-1.2062,-1.2072,-1.2091,-1.2094,-1.2105,-1.2118,-1.2131,-1.2129,-1.2122,-1.2127,-1.2126,-1.2135,-1.2105,-1.2102,-1.2099,-1.2088,-1.2084,-1.2134,-1.2134,-1.2135,-1.2135,0,-1.1976,-1.1981,-1.1976,-1.1993,-1.2,-1.1998,-1.2021,-1.2024,-1.2039,-1.2053,-1.2054,-1.207,-1.208,-1.2081,-1.2095,-1.208,-1.2086,-1.2101,-1.2119,-1.2092,-1.2082,-1.2078,-1.2131,-1.2132,-1.2133,-1.2133,0,0,-1.1925,-1.1955,-1.1953,-1.1961,-1.1982,-1.1985,-1.1985,-1.1995,-1.1996,-1.2008,-1.2007,-1.2016,-1.2029,-1.2036,-1.2052,-1.2048,-1.2023,-1.2063,-1.2064,-1.2053,-1.2005,-1.1992,-1.1987,-1.2035,-1.2034,-1.2034,-1.2003,0,-1.1898,-1.1899,-1.192,-1.1915,-1.1918,-1.1944,-1.1944,-1.1956,-1.1969,-1.1973,-1.1988,-1.1992,-1.2011,-1.2015,-1.2013,-1.2027,-1.2014,-1.203,-1.2032,-1.2032,-1.2025,-1.1983,-1.1969,-1.194,-1.2,-1.1999,-1.1999,0,-1.1867,-1.1876,-1.1871,-1.1891,-1.1893,-1.1892,-1.1903,-1.1907,-1.1921,-1.1931,-1.1938,-1.1956,-1.1956,-1.1974,-1.1974,-1.1984,-1.1986,-1.1994,-1.1993,-1.1992,-1.2012,-1.1979,-1.1931,-1.1926,-1.1994,-1.1994,-1.1994,0,-1.1827,-1.1839,-1.1837,-1.1843,-1.1867,-1.1865,-1.1875,-1.189,-1.1894,-1.1903,-1.1906,-1.1915,-1.1919,-1.1925,-1.1944,-1.1957,-1.194,-1.1961,-1.1947,-1.1946,-1.194,-1.194,-1.189,-1.1946,-1.1946,-1.1946,-1.1946,0,-1.1793,-1.1788,-1.1819,-1.1818,-1.1813,-1.1837,-1.1831,-1.1844,-1.1856,-1.1857,-1.1881,-1.188,-1.1907,-1.1909,-1.1925,-1.192,-1.1923,-1.1929,-1.1933,-1.1926,-1.1925,-1.1926,-1.1928,-1.1945,-1.1945,-1.1945,-1.1945,0,-1.1747,-1.1768,-1.1767,-1.1789,-1.1795,-1.179,-1.1809,-1.1808,-1.1823,-1.1823,-1.1824,-1.1847,-1.1851,-1.1872,-1.1881,-1.1891,-1.188,-1.1889,-1.1875,-1.1877,-1.186,-1.1861,-1.1808,-1.1801,-1.1863,-1.1863,-1.1862,0,-1.1723,-1.172,-1.1742,-1.1744,-1.1753,-1.1756,-1.176,-1.1784,-1.1788,-1.1803,-1.1799,-1.1806,-1.1811,-1.1817,-1.1833,-1.184,-1.1848,-1.1829,-1.1849,-1.1841,-1.1844,-1.1843,-1.1842,-1.1824,-1.1823,-1.1822,-1.1822,0,-1.1677,-1.1687,-1.1693,-1.1702,-1.1707,-1.1715,-1.1724,-1.1725,-1.1751,-1.1753,-1.1758,-1.1763,-1.1771,-1.1776,-1.1786,-1.1795,-1.1811,-1.1816,-1.1812,-1.1804,-1.1795,-1.1797,-1.1861,-1.1816,-1.1817,-1.1817,-1.1818,-1.1818,-1.164,-1.1637,-1.1652,-1.1657,-1.1667,-1.1675,-1.1675,-1.1689,-1.1694,-1.1703,-1.1717,-1.1719,-1.1732,-1.1746,-1.1754,-1.1755,-1.1765,-1.176,-1.1759,-1.1757,-1.1752,-1.1796,-1.1757,-1.1757,-1.1757,-1.1758,-1.1758,0,-1.1593,-1.1604,-1.1609,-1.1621,-1.1624,-1.1642,-1.1653,-1.1654,-1.1656,-1.1667,-1.1672,-1.1676,-1.1681,-1.1698,-1.1704,-1.1702,-1.171,-1.1703,-1.1702,-1.1703,-1.1744,-1.1745,-1.1696,-1.1696,-1.1696,-1.1696,-1.1696,-1.1696,-1.1569,-1.1565,-1.1577,-1.1578,-1.1589,-1.1591,-1.1596,-1.1603,-1.1612,-1.1615,-1.1619,-1.1631,-1.1644,-1.1651,-1.1656,-1.1661,-1.166,-1.165,-1.1657,-1.1695,-1.17,-1.1706,-1.1707,-1.1651,-1.1651,-1.1616,-1.1615,-1.1615]}]]